Home   Weather   Holguín   Past weeks

Flag for Cuba Past Weather in Holguín, Cuba — Yesterday and Last 2 Weeks

Now
90 °F

Scattered clouds.


Feels Like: 90 °F
Forecast: 69 / 90 °F
Wind: 6 mph from North

Location: Holguin Civ / Mil

Current Time: Apr 25, 2017 at 2:29:53 pm

Latest Report: Apr 25, 2017 at 1:50 pm


Visibility: N/A

Pressure: 29.89 "Hg

Humidity: 38%

Dew Point: 61 °F

Location of HolguínLocation

Past Weather in Holguín — Graph

°F

Holguín Temperature Yesterday

Maximum temperature yesterday: 91 °F (at 2:55 pm)
Minimum temperature yesterday: 72 °F (at 3:51 am)
Average temperature yesterday: 80 °F

High & Low Weather Summary for the Past Weeks

 TemperatureHumidityPressure
High91 °F (Apr 24, 2:55 pm)94% (Apr 22, 4:50 am)30.07 "Hg (Apr 22, 4:50 am)
Low61 °F (Apr 14, 5:50 am)29% (Apr 12, 1:51 pm)29.77 "Hg (Apr 23, 3:50 pm)
Average77 °F69%29.97 "Hg
* Reported Apr 10 12:50 pm — Apr 25 12:50 pm, Holguín, Weather by CustomWeather, © 2017

Note: Actual official high and low records may vary slightly from our data, if they occured in-between our weather recording intervals... More about our weather records

Advertising

Holguín Weather History for the Previous 24 Hours

Scroll right to see more
 ConditionsComfort  
Time TempWeatherWind HumidityBarometerVisibility
12:50 pm
Tue, Apr 25
90 °FScattered clouds.8 mph38%29.89 "HgN/A
11:50 am86 °FScattered clouds.6 mph49%29.92 "HgN/A
10:50 am84 °FScattered clouds.3 mph58%29.92 "HgN/A
9:50 am81 °FScattered clouds.3 mph70%29.92 "Hg6 mi
8:50 am75 °FFog.2 mph89%29.92 "Hg4 mi
8:28 am75 °FFog.1 mph89%29.92 "Hg3 mi
7:55 am73 °FFog.3 mph89%29.89 "Hg2 mi
6:50 am72 °FFog.1 mph88%29.89 "Hg0 mi
5:50 am72 °FFog.1 mph94%29.86 "Hg0 mi
5:33 am72 °FFog.1 mph94%29.86 "Hg0 mi
5:20 am72 °FFog.1 mph88%29.86 "Hg1 mi
4:54 am72 °FPassing clouds.2 mph88%29.86 "Hg2 mi
4:42 am72 °FPassing clouds.1 mph88%29.86 "Hg2 mi
3:50 am72 °FFog.1 mph88%29.83 "Hg5 mi
2:51 am72 °FFog.2 mph88%29.83 "Hg5 mi
1:51 am72 °FFog.2 mph88%29.86 "Hg5 mi
12:51 am73 °FPassing clouds.1 mph83%29.89 "Hg6 mi
11:50 pm
Mon, Apr 24
75 °FPassing clouds.5 mph78%29.89 "Hg6 mi
10:51 pm75 °FPassing clouds.3 mph78%29.86 "Hg6 mi
9:51 pm77 °FPassing clouds.3 mph74%29.86 "Hg6 mi
8:51 pm79 °FPassing clouds.2 mph70%29.86 "Hg6 mi
7:51 pm82 °FPassing clouds.6 mph62%29.83 "Hg6 mi
6:50 pm86 °FScattered clouds.12 mph52%29.80 "Hg6 mi
5:51 pm86 °FScattered showers. Partly sunny.3 mph52%29.80 "Hg5 mi
4:52 pm82 °FScattered showers. Partly sunny.12 mph55%29.77 "Hg5 mi
3:51 pm90 °FPartly sunny.12 mph46%29.77 "Hg6 mi
2:55 pm91 °FPartly sunny.8 mph41%29.77 "Hg6 mi
Weather by CustomWeather, © 2017

See weather overviewHow to use our weather pages